GW5832 Weather Reports


time (UTC)temp
C
wind
direction
speed
KPH
gust
KPH
rain 1hr
cm
rain 24hr
cm
rain mn
cm
humidity
%
barometer
mb
20260506081007 18 52 0.0 1.6 0.00 0.00 0.00 72 1013.5
20260506080506 18 75 0.0 3.2 0.00 0.00 0.00 72 1013.5
20260506073508 18 22 0.0 3.2 0.00 0.00 0.00 69 1013.7
20260506073024 18 196 0.0 3.2 0.00 0.00 0.00 69 1013.6
20260506072508 18 109 0.0 0.0 0.00 0.00 0.00 69 1013.7
20260506072011 18 123 0.0 3.2 0.00 0.00 0.00 68 1013.7
20260506071528 18 45 0.0 3.2 0.00 0.00 0.00 68 1013.8
20260506071004 18 217 0.0 0.0 0.00 0.00 0.00 67 1013.8
20260506070507 18 136 0.0 0.0 0.00 0.00 0.00 67 1014.2
20260506062513 18 103 0.0 0.0 0.00 0.00 0.00 66 1014.5
20260506062009 18 64 0.0 0.0 0.00 0.00 0.00 65 1014.6
20260506061515 18 21 0.0 0.0 0.00 0.00 0.00 64 1014.5
20260506061006 18 112 0.0 3.2 0.00 0.00 0.00 63 1014.6
20260506060510 18 51 0.0 3.2 0.00 0.00 0.00 64 1014.5
20260506051010 18 309 0.0 0.0 0.00 0.00 0.00 61 1014.3
20260506050505 18 293 0.0 3.2 0.00 0.00 0.00 61 1014.3
20260506045002 19 107 0.0 3.2 0.00 0.00 0.00 61 1014.0
20260506044511 19 112 0.0 3.2 0.00 0.00 0.00 62 1014.0
20260506044003 19 96 0.0 3.2 0.00 0.00 0.00 62 1014.3
20260506043506 19 106 0.0 3.2 0.00 0.00 0.00 62 1014.6
20260506043008 19 142 0.0 3.2 0.00 0.00 0.00 62 1014.6
20260506042503 19 240 0.0 3.2 0.00 0.00 0.00 62 1014.4
20260506042004 19 36 0.0 3.2 0.00 0.00 0.00 61 1014.6
20260506041514 19 30 0.0 3.2 0.00 0.00 0.00 62 1014.4
20260506041002 19 124 0.0 3.2 0.00 0.00 0.00 61 1014.4
20260506040502 19 106 0.0 3.2 0.00 0.00 0.00 60 1014.4
20260506040011 19 60 0.0 3.2 0.00 0.00 0.00 60 1014.3
20260506035507 19 60 0.0 3.2 0.00 0.00 0.00 59 1014.4
20260506035003 19 62 0.0 3.2 0.00 0.00 0.00 59 1014.1
20260506034512 19 51 0.0 3.2 0.00 0.00 0.00 59 1014.1
20260506034004 19 126 0.0 3.2 0.00 0.00 0.00 59 1014.2
20260506033503 19 74 0.0 3.2 0.00 0.00 0.00 59 1014.5
20260506033015 19 308 0.0 3.2 0.00 0.00 0.00 58 1014.4
20260506032503 19 308 0.0 3.2 0.00 0.00 0.00 58 1014.3
20260506032006 19 184 0.0 3.2 0.00 0.00 0.00 57 1014.3
20260506031514 19 185 0.0 0.0 0.00 0.00 0.00 57 1014.5
20260506031004 19 185 0.0 0.0 0.00 0.00 0.00 57 1014.6
20260506030504 20 188 0.0 3.2 0.00 0.00 0.00 56 1014.6
20260506030025 20 188 0.0 3.2 0.00 0.00 0.00 55 1014.5
20260506025504 20 190 0.0 3.2 0.00 0.00 0.00 55 1014.6
20260506025003 20 190 0.0 3.2 0.00 0.00 0.00 54 1014.8
20260506024533 20 190 0.0 3.2 0.00 0.00 0.00 55 1014.7
20260506024004 20 186 0.0 3.2 0.00 0.00 0.00 54 1014.6
20260506023503 20 186 0.0 3.2 0.00 0.00 0.00 54 1014.5
20260506023012 20 189 0.0 3.2 0.00 0.00 0.00 54 1014.4
20260506022507 20 196 0.0 3.2 0.00 0.00 0.00 54 1014.5
20260506022007 20 134 0.0 3.2 0.00 0.00 0.00 52 1014.4
20260506021510 20 130 0.0 3.2 0.00 0.00 0.00 53 1014.3
20260506021003 20 128 0.0 3.2 0.00 0.00 0.00 52 1014.3
20260506020503 20 136 0.0 3.2 0.00 0.00 0.00 52 1014.1
20260506020016 20 123 0.0 3.2 0.00 0.00 0.00 52 1014.0
20260506015503 20 30 0.0 3.2 0.00 0.00 0.00 52 1014.1
20260506015003 20 49 0.0 3.2 0.00 0.00 0.00 52 1014.2
20260506014520 20 80 0.0 3.2 0.00 0.00 0.00 52 1014.3
20260506014005 21 46 0.0 3.2 0.00 0.00 0.00 51 1014.3
20260506013505 21 24 0.0 1.6 0.00 0.00 0.00 51 1014.3
20260506013016 21 24 0.0 1.6 0.00 0.00 0.00 51 1014.3
20260506012503 21 103 0.0 0.0 0.00 0.00 0.00 51 1014.0
20260506012003 21 77 0.0 3.2 0.00 0.00 0.00 51 1014.1
20260506011517 21 90 0.0 3.2 0.00 0.00 0.00 51 1014.1
20260506011004 21 88 0.0 3.2 0.00 0.00 0.00 49 1014.1
20260506010504 21 70 0.0 3.2 0.00 0.00 0.00 48 1014.2
20260506010014 21 41 0.0 3.2 0.00 0.00 0.00 48 1014.2
20260506005504 21 188 0.0 3.2 0.00 0.00 0.00 47 1014.0
20260506005007 22 64 0.0 3.2 0.00 0.00 0.00 47 1014.2
20260506004517 22 75 0.0 3.2 0.00 0.00 0.00 46 1014.2
20260506004006 22 190 0.0 3.2 0.00 0.00 0.00 46 1014.3
20260506003509 22 141 0.0 3.2 0.00 0.00 0.00 46 1014.3
20260506003018 22 101 0.0 3.2 0.00 0.00 0.00 45 1014.4
20260506002506 22 154 0.0 3.2 0.00 0.00 0.00 45 1014.4
20260506002007 22 203 0.0 3.2 0.00 0.00 0.00 46 1014.3
20260506001512 22 161 0.0 3.2 0.00 0.00 0.00 45 1014.3
20260506001003 22 9 0.0 3.2 0.00 0.00 0.00 46 1014.3
20260506000507 23 351 0.0 3.2 0.00 0.00 0.00 44 1014.1
20260506000014 23 167 0.0 4.8 0.00 0.00 0.00 45 1014.2
20260505235506 23 86 0.0 4.8 0.00 0.00 0.00 42 1013.9
20260505235004 23 117 0.0 4.8 0.00 0.00 0.00 43 1013.9
20260505234528 23 96 0.0 3.2 0.00 0.00 0.00 44 1014.1
20260505234005 23 124 0.0 3.2 0.00 0.00 0.00 44 1014.1
20260505233502 23 76 0.0 3.2 0.00 0.00 0.00 43 1014.1
20260505233021 23 103 0.0 3.2 0.00 0.00 0.00 44 1014.1
20260505232509 23 333 0.0 3.2 0.00 0.00 0.00 44 1014.1
20260505232005 23 177 0.0 3.2 0.00 0.00 0.00 44 1014.1
20260505231518 23 264 0.0 3.2 0.00 0.00 0.00 43 1014.0
20260505231006 23 360 0.0 3.2 0.00 0.00 0.00 43 1014.0
20260505230503 24 59 1.6 3.2 0.00 0.00 0.00 44 1014.0
20260505230041 24 321 0.0 4.8 0.00 0.00 0.00 43 1013.9
20260505225509 24 17 1.6 4.8 0.00 0.00 0.00 46 1013.6
20260505225008 24 352 0.0 8.0 0.00 0.00 0.00 44 1013.7
20260505224521 24 344 1.6 8.0 0.00 0.00 0.00 42 1013.9
20260505224006 24 197 0.0 3.2 0.00 0.00 0.00 45 1013.8
20260505223505 24 132 0.0 4.8 0.00 0.00 0.00 43 1013.7
20260505223021 24 102 0.0 4.8 0.00 0.00 0.00 41 1013.7
20260505222508 24 143 0.0 4.8 0.00 0.00 0.00 41 1013.9
20260505222009 25 39 0.0 3.2 0.00 0.00 0.00 45 1013.9
20260505221522 25 153 0.0 3.2 0.00 0.00 0.00 45 1013.8
20260505221010 25 161 0.0 4.8 0.00 0.00 0.00 42 1013.8
20260505220506 25 9 0.0 4.8 0.00 0.00 0.00 42 1013.6
20260505220030 25 186 0.0 3.2 0.00 0.00 0.00 42 1013.6
20260505215507 25 360 0.0 4.8 0.00 0.00 0.00 40 1013.5
20260505215007 25 189 0.0 11.3 0.00 0.00 0.00 40 1013.6
20260505214520 25 218 1.6 11.3 0.00 0.00 0.00 38 1013.9
20260505214012 25 285 0.0 3.2 0.00 0.00 0.00 41 1013.9
20260505213507 25 228 0.0 4.8 0.00 0.00 0.00 41 1013.8
20260505213023 25 63 1.6 4.8 0.00 0.00 0.00 39 1014.0
20260505212507 25 147 0.0 3.2 0.00 0.00 0.00 42 1013.9
20260505212007 25 9 0.0 4.8 0.00 0.00 0.00 40 1014.1
20260505211522 25 207 0.0 4.8 0.00 0.00 0.00 39 1014.0
20260505211009 25 317 0.0 4.8 0.00 0.00 0.00 41 1014.0
20260505210509 25 16 0.0 4.8 0.00 0.00 0.00 41 1014.0
20260505210014 25 21 0.0 4.8 0.00 0.00 0.00 40 1013.9
20260505205504 25 298 1.6 9.7 0.00 0.00 0.00 39 1014.1
20260505205004 25 352 0.0 11.3 0.00 0.00 0.00 41 1014.2
20260505204507 25 333 1.6 11.3 0.00 0.00 0.00 39 1014.2
20260505204003 25 173 0.0 9.7 0.00 0.00 0.00 40 1014.4
20260505203508 25 111 0.0 8.0 0.00 0.00 0.00 39 1014.5
20260505203004 25 84 1.6 6.4 0.00 0.00 0.00 40 1014.6
20260505202503 25 296 0.0 6.4 0.00 0.00 0.00 43 1014.5
20260505202007 25 310 0.0 6.4 0.00 0.00 0.00 41 1014.6
20260505201512 25 178 0.0 1.6 0.00 0.00 0.00 40 1014.7
20260505201003 25 11 0.0 8.0 0.00 0.00 0.00 41 1014.6
20260505200503 25 323 0.0 6.4 0.00 0.00 0.00 40 1014.8
20260505200008 25 68 0.0 4.8 0.00 0.00 0.00 39 1015.0
20260505195502 25 152 0.0 4.8 0.00 0.00 0.00 40 1015.0
20260505195003 25 35 1.6 4.8 0.00 0.00 0.00 41 1015.1
20260505194517 26 94 1.6 4.8 0.00 0.00 0.00 43 1015.2
20260505194006 26 346 0.0 4.8 0.00 0.00 0.00 42 1015.3
20260505193504 26 114 0.0 4.8 0.00 0.00 0.00 39 1015.5
20260505193016 26 101 0.0 3.2 0.00 0.00 0.00 40 1015.4
20260505192511 26 162 0.0 4.8 0.00 0.00 0.00 42 1015.4
20260505192004 26 185 0.0 9.7 0.00 0.00 0.00 42 1015.4
20260505191507 26 170 1.6 9.7 0.00 0.00 0.00 38 1015.3
20260505191003 26 332 1.6 9.7 0.00 0.00 0.00 39 1015.4
20260505190503 26 97 0.0 9.7 0.00 0.00 0.00 39 1015.5
20260505190011 26 253 0.0 3.2 0.00 0.00 0.00 41 1015.5
20260505185503 26 150 0.0 4.8 0.00 0.00 0.00 42 1015.4
20260505185003 26 169 0.0 6.4 0.00 0.00 0.00 42 1015.5
20260505184506 27 175 0.0 6.4 0.00 0.00 0.00 39 1015.7
20260505184005 27 277 0.0 3.2 0.00 0.00 0.00 42 1015.7
20260505183505 27 126 0.0 3.2 0.00 0.00 0.00 38 1015.7
20260505183022 27 9 0.0 6.4 0.00 0.00 0.00 41 1015.9
20260505182503 27 251 0.0 6.4 0.00 0.00 0.00 40 1015.9
20260505182007 27 36 0.0 4.8 0.00 0.00 0.00 39 1015.9
20260505181522 27 298 0.0 4.8 0.00 0.00 0.00 40 1016.2
20260505181004 27 327 1.6 4.8 0.00 0.00 0.00 41 1016.3
20260505180504 27 51 0.0 8.0 0.00 0.00 0.00 42 1016.3
20260505180017 27 160 0.0 8.0 0.00 0.00 0.00 39 1016.3
20260505175503 27 350 0.0 6.4 0.00 0.00 0.00 38 1016.4
20260505175003 27 309 0.0 6.4 0.00 0.00 0.00 38 1016.5
20260505174512 27 146 0.0 4.8 0.00 0.00 0.00 41 1016.4
20260505174007 27 59 0.0 4.8 0.00 0.00 0.00 41 1016.6
20260505173503 27 88 0.0 9.7 0.00 0.00 0.00 42 1016.7
20260505173012 27 360 1.6 9.7 0.00 0.00 0.00 41 1016.7
20260505172510 27 169 1.6 8.0 0.00 0.00 0.00 42 1016.7
20260505172009 27 295 1.6 6.4 0.00 0.00 0.00 40 1016.6
20260505171508 27 120 0.0 6.4 0.00 0.00 0.00 45 1016.7
20260505171009 27 32 1.6 6.4 0.00 0.00 0.00 42 1016.8
20260505170505 26 319 1.6 8.0 0.00 0.00 0.00 44 1016.7
20260505170025 26 318 1.6 8.0 0.00 0.00 0.00 46 1016.8
20260505165503 26 185 1.6 6.4 0.00 0.00 0.00 39 1016.8
20260505165002 26 5 1.6 9.7 0.00 0.00 0.00 42 1016.7
20260505164508 26 296 1.6 9.7 0.00 0.00 0.00 41 1016.6
20260505164003 26 138 1.6 4.8 0.00 0.00 0.00 43 1016.6
20260505163509 25 101 1.6 6.4 0.00 0.00 0.00 43 1016.5
20260505163015 25 112 1.6 6.4 0.00 0.00 0.00 43 1016.6
20260505162503 25 306 1.6 8.0 0.00 0.00 0.00 45 1016.5
20260505162007 25 143 1.6 8.0 0.00 0.00 0.00 44 1016.6
20260505161518 25 328 1.6 6.4 0.00 0.00 0.00 45 1016.6
20260505161007 24 173 1.6 6.4 0.00 0.00 0.00 54 1016.8
20260505160503 23 59 1.6 6.4 0.00 0.00 0.00 55 1016.9
20260505153012 21 233 0.0 4.8 0.00 0.00 0.00 61 1017.2
20260505152506 20 100 0.0 4.8 0.00 0.00 0.00 60 1017.1
20260505152003 19 302 0.0 3.2 0.00 0.00 0.00 64 1017.1
20260505151517 18 194 0.0 4.8 0.00 0.00 0.00 70 1017.0
20260505151003 17 76 0.0 4.8 0.00 0.00 0.00 74 1017.0
20260505150507 17 348 0.0 0.0 0.00 0.00 0.00 74 1017.0
20260505140508 13 86 0.0 0.0 0.00 0.00 0.00 83 1016.8
20260505125006 11 167 0.0 3.2 0.00 0.00 0.00 82 1016.5
20260505124522 11 150 0.0 0.0 0.00 0.00 0.00 82 1016.4
20260505124010 11 148 0.0 0.0 0.00 0.00 0.00 82 1016.5
20260505123512 11 219 0.0 0.0 0.00 0.00 0.00 83 1016.4
20260505123028 11 225 0.0 0.0 0.00 0.00 0.00 83 1016.2
20260505122509 11 227 0.0 0.0 0.00 0.00 0.00 82 1016.2
20260505122004 11 227 0.0 0.0 0.00 0.00 0.00 83 1016.1
20260505121512 11 241 0.0 0.0 0.00 0.00 0.00 83 1016.1
20260505121005 11 255 0.0 0.0 0.00 0.00 0.00 82 1016.2
20260505120504 11 255 0.0 0.0 0.00 0.00 0.00 82 1016.3
20260505120019 11 267 0.0 0.0 0.00 0.00 0.00 82 1016.3
20260505115504 11 267 0.0 0.0 0.00 0.00 0.00 82 1016.3
20260505115009 11 267 0.0 0.0 0.00 0.00 0.00 81 1016.2
20260505114507 11 267 0.0 0.0 0.00 0.00 0.00 81 1016.0
20260505114006 11 267 0.0 0.0 0.00 0.00 0.00 80 1015.9
20260505113505 11 267 0.0 0.0 0.00 0.00 0.00 80 1015.7
20260505113024 11 267 0.0 0.0 0.00 0.00 0.00 80 1015.7
20260505112504 11 267 0.0 0.0 0.00 0.00 0.00 80 1015.7
20260505112003 11 267 0.0 0.0 0.00 0.00 0.00 80 1015.6
20260505111516 11 267 0.0 0.0 0.00 0.00 0.00 80 1015.6
20260505111004 11 267 0.0 0.0 0.00 0.00 0.00 80 1015.6
20260505110504 11 267 0.0 0.0 0.00 0.00 0.00 80 1015.6
20260505102008 11 11 0.0 0.0 0.00 0.00 0.00 78 1015.4
20260505101525 11 11 0.0 0.0 0.00 0.00 0.00 78 1015.4
20260505101003 11 11 0.0 0.0 0.00 0.00 0.00 78 1015.4
20260505100504 11 11 0.0 0.0 0.00 0.00 0.00 79 1015.6
20260505100030 11 11 0.0 0.0 0.00 0.00 0.00 79 1015.6
20260505095503 11 11 0.0 0.0 0.00 0.00 0.00 79 1015.5
20260505095002 11 11 0.0 0.0 0.00 0.00 0.00 78 1015.5
20260505094517 11 11 0.0 0.0 0.00 0.00 0.00 78 1015.4
20260505094005 11 11 0.0 0.0 0.00 0.00 0.00 78 1015.2
20260505093507 11 11 0.0 0.0 0.00 0.00 0.00 78 1015.3
20260505093024 12 11 0.0 0.0 0.00 0.00 0.00 78 1015.2
20260505092511 12 11 0.0 0.0 0.00 0.00 0.00 77 1015.2
20260505092004 12 11 0.0 0.0 0.00 0.00 0.00 77 1015.3
20260505091520 12 11 0.0 0.0 0.00 0.00 0.00 77 1015.4
20260505091008 12 11 0.0 0.0 0.00 0.00 0.00 77 1015.5
20260505090508 12 11 0.0 0.0 0.00 0.00 0.00 77 1015.6
20260505090017 12 11 0.0 0.0 0.00 0.00 0.00 77 1015.6
20260505085504 12 11 0.0 0.0 0.00 0.00 0.00 77 1015.6
20260505085003 12 11 0.0 0.0 0.00 0.00 0.00 77 1015.6
20260505084512 12 11 0.0 0.0 0.00 0.00 0.00 76 1015.6
20260505084003 12 11 0.0 0.0 0.00 0.00 0.00 76 1015.7
20260505083504 12 11 0.0 0.0 0.00 0.00 0.00 76 1015.6
20260505083024 12 11 0.0 0.0 0.00 0.00 0.00 76 1015.6
20260505082503 12 11 0.0 0.0 0.00 0.00 0.00 76 1015.5
20260505082007 12 11 0.0 0.0 0.00 0.00 0.00 76 1015.5
20260505081524 12 11 0.0 0.0 0.00 0.00 0.00 75 1015.5